Location: Trois-Rivi�res
(46.3500°N, 72.5500°W)
Time: 07:52:51
(UTC-05:00)

ISS - Visible Passes

Search period start: 20 January 2018 00:00
Search period end: 30 January 2018 00:00
Orbit: 402 x 407 km, 51.6° (Epoch: 20 January)

Date Brightness Start Highest point End Pass type
(mag) Time Alt. Az. Time Alt. Az. Time Alt. Az.
24 Jan -0.9 19:13:40 10° SSW 19:13:59 12° SSW 19:13:59 12° SSW visible
25 Jan -2.2 18:21:53 10° SSW 18:24:08 22° SSE 18:24:08 22° SSE visible
26 Jan -1.5 17:30:47 10° SSE 17:32:20 13° SE 17:33:52 10° ESE visible
26 Jan -2.1 19:05:04 10° WSW 19:06:52 30° SW 19:06:52 30° SW visible
27 Jan -3.4 18:12:50 10° SW 18:15:59 45° SE 18:16:50 35° ESE visible
27 Jan -0.3 19:49:21 10° W 19:49:30 11° W 19:49:30 11° W visible
28 Jan -2.4 17:20:55 10° SSW 17:23:42 26° SE 17:26:30 10° E visible
28 Jan -2.9 18:56:46 10° WSW 18:59:23 48° WNW 18:59:23 48° WNW visible
29 Jan -3.9 18:04:17 10° WSW 18:07:33 89° N 18:09:13 27° ENE visible
29 Jan -0.6 19:41:16 10° WNW 19:41:52 14° WNW 19:41:52 14° WNW visible
